Starlink 31846

operational
NORAD ID: 60126 Int'l Des: 2024-118 Owner: SPXS Country: US Constellation: starlink
LEOCIRCULAR

关于 Starlink 31846

正在加载描述...

实时位置

正在加载3D地球...

即将过境

高度历史

Altitude vs Time

uPlot chart will show altitude changes over time

两行轨道根数

1 60126U 24118P 26095.18683853 .00013337 00000-0 46141-3 0 9991
2 60126 53.1611 263.6106 0000765 44.7951 315.3111 15.30213336 99758
Epoch: Apr 5, 2026 • Age: 14 hours

当前状态

高度 482.1 km
速度 7.62 km/s
星下点 -24.42°S, 130.21°E
发射日期 Jun 24, 2024
运行时间 1.7 years
类型 internet

技术详情

分类 Payload
质量 730.00 kg
干质量 700.00 kg
总质量 730.00 kg
长度 0.30 m
直径 4.10 m
跨度 29.00 m
形状 Box + pan
制造商 SPXS
平台类型 Starlink V2M
阶段状态 In Orbit
所有者/国家 SPXS/US

大型星座

Loading constellations...